Wind_Speed
21 21 21 20 19 18 19 18 21 22 23 22 24 26 25 25 28 31 36 39 41 41 42 46 48 45 49 52 48 47 52 54 47 41 36 35 37 41 42 45 39 37 39 38 36
21 20 20 20 19 18 18 17 16 18 18 18 19 21 22 24 26 29 27 31 34 36 37 39 40 45 46 45 55 54 57 51 45 51 42 40 41 42 46 36 36 42 44 45 44
21 21 20 20 20 19 18 18 17 17 17 17 18 20 20 21 24 23 24 29 31 31 36 38 40 43 46 48 46 56 62 51 42 40 39 45 48 45 41 39 32 37 39 41 45
19 20 19 19 19 20 22 21 19 19 18 19 20 20 21 23 26 21 25 28 30 30 33 36 38 40 42 45 47 51 51 53 61 51 48 47 46 54 48 41 43 30 27 33 40
19 17 17 17 16 15 16 17 18 20 21 22 22 23 23 25 26 26 26 27 29 31 33 36 40 40 41 40 46 47 48 54 57 58 60 54 51 51 53 43 39 51 45 32 39
18 18 19 18 18 19 19 18 19 18 18 19 21 22 24 28 26 28 29 30 31 32 34 35 39 42 43 42 44 45 49 49 49 56 59 60 64 59 57 44 47 48 49 48 46
17 17 17 17 19 20 21 22 22 22 22 22 22 22 24 24 26 28 29 30 31 33 35 38 40 40 43 44 42 46 50 50 48 50 53 57 62 71 57 56 52 51 52 49 55
17 17 16 17 17 17 18 19 20 22 23 23 24 24 25 25 25 26 28 29 31 33 36 38 40 42 44 47 47 49 50 52 46 51 50 53 59 51 56 67 63 56 52 53 56
18 16 15 13 14 14 15 16 16 16 17 19 21 22 24 23 25 28 29 30 32 33 35 37 39 42 45 47 48 49 53 55 53 49 53 52 58 52 48 53 65 69 63 59 57
18 16 13 13 12 11 11 12 13 14 16 16 18 22 22 24 25 28 30 31 33 34 36 38 41 42 44 46 48 50 54 55 55 50 54 53 59 54 52 55 57 58 71 66 66
17 18 15 13 12 13 13 13 13 13 14 16 17 20 23 24 27 29 30 32 35 37 37 40 42 44 46 49 50 55 57 60 58 60 56 38 57 60 57 57 57 57 56 69 73
18 16 16 15 13 12 13 15 15 15 16 14 16 18 21 23 26 28 29 32 34 36 39 41 43 45 50 53 56 59 61 59 61 63 67 65 67 61 61 60 60 59 59 57 60
19 18 14 15 15 14 14 14 15 16 17 15 18 17 18 20 22 24 29 32 33 35 37 40 41 44 48 50 53 55 59 62 66 67 69 67 71 67 65 66 63 64 62 59 60
19 19 19 14 15 15 16 16 15 17 19 16 15 16 17 20 24 24 26 31 32 33 35 37 38 41 44 47 48 52 51 56 61 64 70 63 72 71 66 66 67 63 61 61 61
23 18 19 19 16 16 17 17 16 16 22 21 22 20 22 23 24 27 33 33 33 34 34 32 32 37 40 43 46 53 51 52 55 59 63 65 64 73 69 69 68 68 64 63 63
23 21 18 19 17 16 17 17 17 19 18 23 21 24 25 27 29 32 34 37 39 39 36 31 28 33 39 32 31 35 36 43 48 44 57 68 58 74 72 71 71 70 68 66 67
24 24 20 16 16 15 17 18 18 18 18 22 22 25 26 30 27 33 33 33 26 24 23 26 25 34 29 30 22 21 24 32 38 35 47 48 39 56 69 71 70 68 55 50 43
25 24 23 17 17 17 18 18 18 17 19 21 23 22 25 29 30 30 29 23 18 20 23 30 32 25 26 25 33 28 23 31 36 29 28 24 35 38 54 59 59 68 59 51 54
27 25 23 20 21 20 18 20 22 20 22 22 22 22 21 22 28 24 14 22 17 23 30 29 29 25 23 23 22 18 24 24 21 23 29 32 33 36 38 43 51 48 39 36 60
30 29 24 22 23 23 23 20 20 22 20 23 24 22 21 23 24 21 14 16 24 29 32 31 38 27 25 21 20 17 19 19 21 28 33 22 25 19 19 21 17 39 35 40 41
31 30 30 28 26 25 25 23 22 24 23 24 24 23 23 24 21 22 18 18 25 28 34 31 36 22 20 18 13 17 17 19 27 24 24 27 20 9 26 30 31 44 18 26 42
34 34 33 30 28 27 27 27 26 24 25 26 24 24 22 23 20 21 20 21 24 24 29 26 29 25 19 15 21 29 19 30 22 28 23 28 26 30 20 32 38 39 32 34 45
34 32 33 32 31 31 29 28 28 25 27 28 24 24 21 22 22 18 18 19 18 20 22 22 20 22 19 10 22 25 26 27 30 30 28 29 23 24 22 33 43 39 35 24 40
35 35 37 32 30 32 32 31 30 30 28 27 22 24 22 18 20 20 15 15 17 18 17 20 18 22 21 22 24 27 12 9 22 31 26 22 28 29 36 27 49 31 26 13 46
36 35 35 33 32 34 33 31 30 28 27 28 20 23 23 17 17 17 14 11 16 17 19 21 17 21 22 19 24 20 21 17 20 21 27 30 29 33 30 41 43 29 27 10 41
37 36 36 34 33 36 33 31 29 26 27 23 19 21 22 18 17 15 14 13 14 16 17 20 25 25 12 19 20 16 17 20 18 25 25 28 27 23 30 28 13 19 16 37 43
40 38 36 37 36 36 37 33 31 27 21 26 16 20 21 20 18 12 11 12 14 20 15 21 26 25 17 22 17 14 12 20 31 28 34 32 27 24 22 19 20 23 32 46 47
Wind_Direction
283 282 282 281 277 274 271 266 264 262 253 246 240 242 244 241 240 240 242 242 242 242 241 245 242 241 236 232 237 236 240 236 229 235 233 223 224 223 224 225 226 212 224 228 235
285 283 282 283 282 279 274 270 263 261 255 247 240 238 235 235 234 238 239 239 239 241 241 242 245 246 250 244 241 239 234 233 232 238 239 239 227 229 237 242 235 226 228 230 237
283 282 282 279 278 280 278 273 266 260 259 254 247 243 242 241 239 243 239 237 239 240 243 241 242 244 246 246 243 240 238 237 233 237 242 239 238 246 241 234 224 240 232 249 238
286 283 279 276 272 269 269 270 269 266 261 257 256 251 246 243 244 244 240 240 240 243 245 240 240 243 244 243 240 242 246 247 236 242 246 237 232 237 235 235 223 210 245 231 251
302 293 286 284 282 276 267 266 265 265 264 261 256 255 254 251 249 246 243 244 243 242 243 244 244 248 249 247 245 247 247 245 242 243 243 248 242 243 230 236 235 239 230 222 250
311 303 297 291 285 283 280 274 272 267 262 261 259 256 254 255 254 252 251 249 248 248 247 246 246 247 248 249 250 249 248 247 248 245 245 246 246 244 229 232 235 237 239 229 232
324 313 300 290 284 278 277 279 280 277 275 271 265 261 256 255 252 252 251 251 251 251 250 250 250 251 251 252 251 249 249 250 248 250 248 250 246 241 235 233 234 235 236 236 241
324 322 310 299 292 287 283 280 276 275 276 275 272 269 264 263 259 257 255 253 253 253 251 250 250 251 252 252 253 253 254 255 251 252 252 255 252 246 243 241 238 238 237 236 240
333 327 328 321 308 296 289 288 284 279 274 272 272 267 263 261 262 262 261 261 260 260 258 255 253 253 253 253 253 254 255 253 252 251 255 256 254 249 247 244 247 243 243 241 237
336 336 338 340 340 331 321 308 300 295 284 275 273 271 272 266 261 264 265 266 266 266 265 264 263 260 256 255 255 254 256 254 253 250 254 252 256 247 245 245 245 249 246 244 242
320 325 326 329 335 335 333 326 319 318 304 292 285 283 283 275 276 273 271 271 270 269 267 268 268 267 266 265 259 253 250 251 250 251 246 237 246 247 248 245 244 244 244 248 246
313 312 312 316 323 328 325 322 320 321 316 308 307 300 293 288 284 281 279 278 276 275 273 270 268 265 262 260 261 261 260 255 252 250 249 251 251 250 247 247 247 244 242 241 246
308 306 304 304 310 314 313 310 309 312 309 299 303 299 294 293 291 290 288 285 281 279 277 274 272 271 269 266 263 261 261 262 260 253 252 251 251 248 246 249 248 246 246 241 239
291 303 302 299 301 307 306 305 308 310 310 307 308 309 300 294 292 290 288 289 288 286 282 279 275 271 267 265 264 262 261 257 256 254 255 249 251 248 248 249 251 250 252 253 248
302 283 299 298 293 296 301 303 306 309 314 317 313 309 307 304 300 301 306 304 299 296 291 290 287 280 275 266 259 260 251 251 253 251 252 249 251 250 247 246 247 250 249 251 249
320 304 286 297 297 297 301 305 308 307 308 307 308 311 312 312 314 312 313 314 313 311 313 316 302 305 294 282 278 280 262 262 259 259 256 250 252 250 247 247 246 247 248 249 249
329 327 294 280 288 296 304 307 305 305 305 307 315 315 314 308 315 314 314 314 326 311 298 297 292 279 277 274 284 276 269 274 276 261 265 262 262 258 246 246 245 242 237 242 241
340 332 328 284 291 302 308 307 300 296 301 311 311 313 311 307 310 313 324 327 304 315 312 307 302 283 280 267 271 294 288 269 270 258 265 252 252 259 244 241 240 240 236 233 236
356 341 332 319 318 324 309 305 303 305 308 310 305 307 305 300 307 306 318 292 314 316 312 312 310 286 283 273 264 262 272 272 280 254 271 276 256 264 251 250 251 232 226 228 242
357 356 348 335 325 319 314 302 290 298 303 308 304 302 297 295 298 297 290 291 306 316 310 307 306 290 275 269 275 257 273 269 272 275 272 277 278 268 235 230 243 205 212 226 235
11 2 357 353 342 328 314 305 301 303 306 308 301 298 296 299 300 297 287 288 312 315 309 306 312 314 279 264 264 257 267 252 257 277 285 272 249 229 231 218 196 191 204 224 230
12 12 9 3 355 343 330 319 307 303 304 305 300 297 295 298 296 295 282 289 308 319 314 310 311 303 295 294 233 270 231 264 259 280 267 270 208 243 239 219 194 174 213 219 225
8 7 2 357 353 345 335 324 313 306 304 306 302 294 293 297 294 295 282 290 307 320 314 322 324 305 291 272 271 253 251 257 263 275 261 271 218 267 210 202 198 185 191 210 217
9 6 6 358 348 340 336 326 320 315 310 304 299 295 296 297 292 303 275 296 303 323 313 317 321 311 293 272 256 279 258 231 268 259 270 279 279 286 220 188 189 192 183 199 212
2 3 4 358 348 341 341 333 326 320 316 308 299 297 299 300 290 294 282 296 311 330 332 335 312 308 310 301 280 265 262 258 263 280 282 285 291 295 260 164 184 177 185 136 204
358 359 359 358 351 348 343 340 330 325 315 305 301 299 299 301 290 285 282 294 307 320 333 333 335 318 310 293 300 292 269 253 250 273 281 289 290 305 289 267 266 173 163 198 191
356 355 355 357 353 351 348 343 336 329 311 306 304 303 299 304 302 270 282 291 302 328 323 321 321 321 337 289 287 299 262 253 251 251 257 261 263 272 258 249 263 165 198 201 196
Height
5758 5757 5755 5754 5753 5751 5750 5749 5749 5749 5750 5751 5752 5755 5757 5760 5762 5765 5768 5775 5778 5782 5786 5787 5792 5796 5797 5802 5806 5807 5807 5812 5821 5825 5831 5833 5836 5837 5837 5838 5846 5850 5852 5855 5855
5754 5753 5752 5750 5749 5748 5747 5747 5746 5746 5747 5747 5748 5750 5752 5755 5757 5760 5766 5768 5772 5775 5777 5780 5783 5787 5790 5794 5797 5798 5800 5807 5818 5818 5819 5824 5827 5830 5831 5836 5841 5844 5846 5847 5851
5750 5748 5747 5746 5745 5744 5743 5743 5743 5743 5744 5744 5745 5746 5748 5749 5751 5758 5759 5762 5764 5767 5770 5773 5776 5778 5782 5785 5789 5791 5791 5803 5809 5810 5812 5816 5820 5820 5824 5828 5833 5839 5843 5841 5848
5746 5744 5743 5741 5740 5740 5739 5739 5739 5739 5740 5740 5741 5742 5744 5745 5749 5752 5753 5755 5758 5760 5762 5765 5768 5770 5773 5775 5778 5779 5786 5790 5799 5801 5800 5804 5809 5810 5815 5820 5823 5828 5837 5838 5836
5743 5741 5739 5738 5736 5735 5735 5734 5734 5735 5736 5736 5737 5738 5739 5741 5744 5745 5748 5750 5752 5755 5756 5758 5761 5763 5765 5767 5767 5771 5779 5780 5783 5787 5789 5794 5798 5800 5807 5815 5820 5820 5823 5829 5828
5739 5737 5735 5734 5733 5731 5730 5730 5730 5730 5731 5732 5732 5733 5734 5736 5737 5740 5742 5743 5745 5747 5749 5751 5753 5754 5755 5757 5761 5764 5765 5769 5772 5776 5778 5781 5786 5790 5801 5806 5810 5811 5814 5817 5815
5737 5734 5731 5730 5729 5728 5727 5726 5725 5725 5725 5727 5727 5728 5729 5731 5732 5733 5735 5736 5738 5740 5742 5743 5745 5747 5747 5749 5755 5753 5753 5757 5763 5767 5769 5771 5769 5776 5794 5796 5797 5801 5803 5810 5809
5735 5731 5729 5726 5725 5724 5723 5722 5722 5721 5720 5721 5721 5722 5723 5724 5725 5727 5728 5729 5731 5732 5733 5735 5736 5738 5739 5740 5742 5744 5745 5747 5761 5758 5763 5757 5755 5771 5782 5782 5785 5790 5795 5799 5801
5734 5730 5726 5723 5721 5720 5719 5718 5717 5717 5716 5716 5716 5716 5717 5719 5719 5719 5721 5721 5722 5723 5724 5725 5727 5728 5729 5730 5732 5735 5734 5736 5743 5750 5747 5741 5746 5764 5770 5769 5772 5777 5783 5787 5793
5732 5729 5725 5722 5719 5717 5716 5715 5714 5713 5712 5712 5712 5712 5712 5713 5714 5713 5714 5714 5714 5714 5715 5715 5715 5716 5717 5717 5723 5722 5720 5724 5727 5739 5734 5731 5733 5748 5754 5756 5759 5762 5766 5771 5777
5729 5726 5723 5720 5718 5716 5714 5712 5712 5711 5708 5708 5708 5707 5706 5707 5706 5706 5706 5706 5705 5706 5706 5705 5705 5705 5705 5705 5708 5704 5706 5710 5717 5719 5713 5714 5720 5730 5739 5741 5745 5750 5754 5759 5763
5726 5723 5721 5718 5715 5713 5711 5709 5708 5707 5705 5704 5703 5702 5701 5700 5700 5698 5698 5698 5696 5695 5695 5695 5694 5694 5692 5693 5692 5690 5690 5697 5698 5700 5696 5702 5707 5719 5721 5724 5732 5737 5741 5747 5752
5722 5719 5717 5715 5713 5711 5709 5707 5705 5703 5702 5702 5699 5697 5696 5695 5693 5692 5690 5689 5688 5686 5685 5683 5682 5681 5679 5680 5679 5679 5678 5681 5679 5681 5679 5692 5687 5701 5708 5710 5717 5722 5727 5735 5740
5716 5715 5713 5711 5711 5708 5706 5703 5701 5699 5697 5697 5695 5693 5691 5690 5687 5687 5684 5682 5678 5676 5673 5672 5671 5668 5669 5669 5664 5663 5666 5665 5662 5664 5666 5672 5666 5682 5697 5701 5704 5711 5717 5722 5728
5709 5709 5708 5707 5705 5703 5702 5700 5697 5695 5691 5691 5688 5687 5684 5683 5681 5677 5671 5669 5667 5665 5663 5660 5656 5653 5654 5653 5648 5650 5647 5645 5646 5646 5647 5653 5653 5670 5680 5686 5689 5695 5703 5707 5712
5706 5703 5702 5702 5700 5699 5697 5695 5693 5692 5687 5685 5683 5680 5677 5673 5670 5666 5663 5658 5654 5649 5647 5646 5646 5641 5637 5638 5636 5636 5634 5633 5633 5633 5629 5643 5641 5645 5661 5668 5676 5681 5687 5694 5699
5703 5699 5696 5695 5695 5694 5692 5690 5690 5686 5684 5680 5677 5673 5671 5666 5664 5659 5656 5653 5650 5648 5646 5643 5642 5634 5631 5630 5629 5627 5626 5624 5622 5622 5618 5628 5629 5627 5650 5650 5657 5664 5672 5681 5687
5700 5696 5693 5690 5690 5689 5687 5686 5684 5681 5677 5674 5670 5668 5664 5660 5657 5653 5649 5648 5648 5642 5638 5633 5629 5627 5623 5622 5619 5620 5619 5618 5612 5615 5616 5619 5616 5620 5622 5628 5637 5649 5659 5668 5672
5698 5694 5690 5688 5686 5684 5682 5679 5675 5674 5671 5668 5665 5662 5660 5656 5651 5648 5648 5644 5640 5637 5632 5625 5622 5620 5619 5617 5616 5616 5614 5614 5606 5603 5606 5609 5609 5609 5617 5624 5631 5639 5652 5655 5659
5697 5692 5689 5686 5683 5680 5677 5674 5671 5667 5665 5661 5658 5656 5653 5650 5647 5643 5640 5639 5632 5629 5624 5619 5611 5611 5610 5609 5609 5608 5610 5609 5607 5602 5600 5601 5604 5606 5614 5608 5620 5634 5639 5643 5650
5696 5692 5687 5683 5680 5676 5672 5668 5664 5660 5658 5655 5652 5648 5645 5642 5639 5636 5634 5631 5627 5623 5618 5612 5607 5605 5603 5603 5603 5605 5605 5604 5600 5596 5594 5595 5597 5605 5599 5602 5606 5616 5635 5640 5639
5697 5692 5686 5681 5677 5672 5667 5663 5659 5655 5651 5649 5645 5641 5638 5635 5633 5630 5628 5624 5622 5618 5612 5608 5601 5596 5596 5597 5595 5592 5596 5591 5593 5592 5591 5589 5587 5581 5586 5591 5598 5603 5609 5628 5628
5696 5691 5685 5679 5673 5667 5662 5658 5653 5649 5645 5642 5638 5635 5632 5630 5627 5624 5622 5620 5617 5613 5607 5603 5599 5592 5591 5593 5589 5591 5590 5591 5590 5588 5585 5584 5586 5582 5584 5590 5592 5595 5605 5612 5626
5696 5689 5683 5677 5671 5665 5659 5653 5648 5642 5639 5635 5631 5628 5627 5624 5621 5619 5617 5615 5611 5608 5604 5598 5596 5590 5587 5585 5584 5581 5584 5584 5585 5582 5578 5579 5578 5578 5572 5581 5590 5596 5600 5603 5617
5695 5688 5681 5674 5667 5660 5654 5648 5642 5638 5633 5628 5626 5622 5620 5619 5616 5613 5612 5611 5608 5605 5600 5595 5593 5588 5584 5580 5577 5577 5580 5581 5578 5578 5575 5576 5577 5575 5570 5578 5587 5585 5583 5589 5608
5693 5686 5679 5672 5665 5657 5650 5643 5637 5632 5627 5623 5619 5617 5615 5614 5611 5609 5608 5606 5604 5601 5596 5592 5590 5585 5582 5577 5574 5571 5573 5574 5578 5575 5576 5574 5575 5576 5574 5569 5576 5582 5585 5593 5603
5692 5684 5677 5670 5661 5654 5646 5640 5633 5627 5622 5616 5615 5612 5609 5608 5605 5604 5603 5602 5600 5598 5594 5590 5586 5582 5580 5574 5571 5571 5570 5567 5564 5566 5563 5567 5568 5571 5570 5569 5572 5574 5582 5591 5602